Weather in Tredubye

Russia / Tver Oblast     56°44′02″N   35°11′28″E
temp.,
°C
wind,
m/s
gust,
m/s
humid.,
%
clouds,
%
prec.,
mm/h
press.,
hPa
HPBL,
m
12 april, mon
mon1200:00+9ssw25776 0.0 1030112
03:00+6s22845 0.0 103215
06:00+5sse22825 0.0 103236
09:00+11se36610 0.0 1032327
12:00+15se4744100 0.0 10311170
15:00+15ese5837100 0.0 10291266
18:00+13se4951100 0.0 1027910
21:00+10se2872100 0.0 1027263
13 april, tue
tue1300:00+8ese2789100 0.0 1026178
03:00+7ese2796100 0.0 1025158
06:00+7se2797100 0.0 1023165
09:00+11s3778100 0.0 1023327
12:00+16s5956100 0.0 1022737
15:00+19s4846100 0.0 10211366
18:00+18sse485164 0.0 1020443
21:00+13sse3117384 0.0 1020225
14 april, wed
wed1400:00+11sse27765 0.0 1020136
03:00+9se228263 0.0 101928
06:00+10se2776100 0.0 1018180
09:00+12sse3117099 0.0 1018464
12:00+16s4756100 0.0 1018954
15:00+18s465272 0.3 10171479
18:00+14ssw2671100 1.4 1016151
21:00+13sse117577 1.6 101710
15 april, thu
thu1500:00+11nnw1186100 0.0 101715
03:00+9ne1193100 0.0 101812
06:00+8nne2696100 0.1 1018140
09:00+10ne3688100 0.1 1018319
12:00+13ne346599 0.0 1019648
15:00+15ne4560100 0.0 10181122
18:00+12nne5974100 0.0 1019671
21:00+8ne41085100 0.1 1020473
16 april, fri
fri1600:00+7ne41187100 0.1 1021433
03:00+6nne31088100 0.2 1021483
06:00+5ne41189100 0.0 1022504
09:00+7ne51078100 0.0 1023569
12:00+11ne5864100 0.0 10231001
15:00+12ene685995 0.0 10241120
18:00+11ne595633 0.0 10251181
21:00+7ne5135510 0.0 1027596